Regional Weather Roundup
Issued by NWS

Home | Current Version | Previous Version | Graphics & Text | Print | Product List | Glossary On
Versions: 1 2 3 4 5 6 7 8 9 10 11 12 13 14 15 16 17 18 19 20 21 22 23 24 25 26 27 28 29 30 31 32 33 34 35 36 37 38 39 40 41 42 43 44 45 46 47 48 49 50
000
ASUS43 KOAX 011302
RWRNE

WEATHER ROUNDUP FOR NEBRASKA
NATIONAL WEATHER SERVICE OMAHA NE
800 AM CDT TUE SEP 01 2015

NOTES: SATELLITE DATA IS BEING USED TO AUGMENT CLOUD COVER ABOVE
       12000 FEET.
       "FAIR" INDICATES FEW OR NO CLOUDS BELOW 12,000 FEET WITH NO
       SIGNIFICANT WEATHER AND/OR OBSTRUCTIONS TO VISIBILITY.

  * THESE STATIONS DO NOT REPORT WEATHER SUCH AS RAIN...SNOW OR FOG.

NEZ001>004-019>022-054>056-011400-
NEBRASKA PANHANDLE

CITY           SKY/WX    TMP DP  RH WIND       PRES   REMARKS
SCOTTSBLUFF    PTCLDY    56  51  84 W6        29.99R
ALLIANCE       MOCLDY    58  52  80 CALM      29.97S
CHADRON        CLEAR     61  49  64 SW6       29.92S
KIMBALL        CLEAR     55  52  91 W8        30.04S
SIDNEY         CLEAR     57  50  77 W3        30.03R
$$

NEZ057>060-069>072-079>082-011400-
SOUTHWEST NEBRASKA

CITY           SKY/WX    TMP DP  RH WIND       PRES   REMARKS
NORTH PLATTE   CLOUDY    68  63  84 S3        29.94R
IMPERIAL       PTCLDY    63  58  83 CALM      29.99R
LEXINGTON      CLOUDY    67  60  78 S6        29.93S
MCCOOK         PTCLDY    66  62  87 W7        29.95R
$$

NEZ005>010-023>029-035>040-094-011400-
NORTH CENTRAL NEBRASKA

CITY           SKY/WX    TMP DP  RH WIND       PRES   REMARKS
VALENTINE      CLOUDY    64  61  90 CALM      29.94R
AINSWORTH      RAIN      68  67  96 S8        29.96R
BROKEN BOW     CLOUDY    69  63  81 N5        29.90F HAZE
ORD            CLOUDY    65  63  93 CALM      29.90R
$$

NEZ041-046>049-061>064-073>077-083>087-011400-
SOUTH CENTRAL NEBRASKA

CITY           SKY/WX    TMP DP  RH WIND       PRES   REMARKS
GRAND ISLAND   CLOUDY    72  58  61 S12       29.92R
AURORA         CLOUDY    68  62  79 S9        29.92S
HASTINGS       CLOUDY    69  59  70 S8        29.93S
HEBRON         MOSUNNY   70  61  75 S5        29.95S
HOLDREGE       CLOUDY    69  56  62 S7        29.93S
KEARNEY *      CLOUDY    72  55  56 S12       29.92R
YORK           PTSUNNY   66  64  94 S8        29.93S
$$

NEZ011>018-030>034-042>045-011400-
NORTHEAST NEBRASKA

CITY           SKY/WX    TMP DP  RH WIND       PRES   REMARKS
NORFOLK        PTSUNNY   68  64  87 CALM      29.90R
ALBION         PTSUNNY   66  63  89 SE5       29.91S FOG
BLAIR          SUNNY     69  65  87 S8        29.94S
COLUMBUS *     MOSUNNY   68  59  73 CALM      29.92S
FREMONT        MOSUNNY   71  67  87 SE3       29.93S
TEKAMAH        MOSUNNY   69  67  93 SE7       29.92R
WAYNE          MOSUNNY   67  65  91 S10       29.90S
$$

NEZ050>053-065>068-078-088>093-011400-
SOUTHEAST NEBRASKA

CITY           SKY/WX    TMP DP  RH WIND       PRES   REMARKS
LINCOLN        PTSUNNY   71  66  84 S10       29.94S
OMAHA EPPLEY   MOSUNNY   72  68  87 S13       29.95R
BEATRICE       PTSUNNY   70  65  85 S7        29.97R
FALLS CITY     SUNNY     72  68  87 S8        29.99R
NEBRASKA CITY  MOSUNNY   71  67  89 S10       29.97S
PLATTSMOUTH    MOSUNNY   70  66  86 SE5       29.96S
$$

NEZ044-045-051>053-067-011400-
OMAHA AREA

CITY           SKY/WX    TMP DP  RH WIND       PRES   REMARKS
OMAHA EPPLEY   MOSUNNY   72  68  87 S13       29.95R
BLAIR          SUNNY     69  65  87 S8        29.94S
FREMONT        MOSUNNY   71  67  87 SE3       29.93S
MILLARD        MOSUNNY   70  67  91 SE7       29.94S
OFFUTT AFB     SUNNY     69  68  96 E5        29.95R
PLATTSMOUTH    MOSUNNY   70  66  86 SE5       29.96S
WAHOO          FAIR      67  65  94 SE3       29.94R
$$



USA.gov is the U.S. government's official web portal to all federal, state and local government web resources and services.